Simultaneous Nadir Overpasses (SNOs) Predictions

Prediction of SNOs between FY3D and NOAA-19 Satellite Orbit:

Table of predicted SNOs for the next 14.0 days since TLE Epoch: 6/13/2020
Index Date (FY3D) Time (FY3D) Lat,Lon (FY3D) SZA (FY3D ) Date (NOAA-19) Time (NOAA-19) Lat,Lon (NOAA-19) SZA (NOAA-19 ) Distance(km) Time Diff (sec)
1 06/14/2020 12:43:03 -79.37, 137.22 122.21 06/14/2020 12:41:58 -79.38, 137.18 122.17 1.44 65
2 06/14/2020 13:33:48 79.37, -55.49 57.80 06/14/2020 13:32:57 79.37, -55.62 57.84 2.81 51
3 06/14/2020 14:24:32 -79.36, 111.86 122.22 06/14/2020 14:23:58 -79.39, 111.85 122.17 3.45 34
4 06/14/2020 15:15:18 79.40, -81.11 57.85 06/14/2020 15:14:57 79.39, -80.96 57.83 3.29 21
5 06/14/2020 16:06:02 -79.39, 86.24 122.17 06/14/2020 16:05:59 -79.38, 86.24 122.18 1.35 3
6 06/14/2020 16:56:47 79.40,-106.46 57.84 06/14/2020 16:56:58 79.38,-106.58 57.83 3.36 11
7 06/14/2020 17:47:31 -79.39, 60.89 122.17 06/14/2020 17:47:59 -79.40, 60.90 122.18 0.91 28
8 06/14/2020 18:38:16 79.40,-131.82 57.83 06/14/2020 18:38:58 79.39,-131.91 57.82 1.99 42
9 06/14/2020 19:29:00 -79.39, 35.54 122.18 06/14/2020 19:29:59 -79.42, 35.57 122.19 3.14 59




NCC Satellite Simultaneous Nadir Overpasses (SNOs) Prediction Service
